sat.trackr.live / text

‹ back to catalog

STARLINK-5243

NORAD 54167 · 2022-141L

PAYLOAD ACTIVE UNKNOWN

§ Identity

Operator
Country
US
Launch date
2022-10-28
Launch site
AFWTR
Launch vehicle
Mass (kg)
RCS (m²)

Purposes: comms

External: N2YO · Heavens-Above · Gunter

§ Orbital elements

Epoch: 2026-09-20T22:00:03.000096Z

Period
94.07 min
Inclination
53.1612°
Eccentricity
0.0001313
Mean motion
15.30741619 rev/d
Perigee alt
472.7 km
Apogee alt
474.5 km
Semi-major
6,851.7 km
B*
2.4032e-3
RAAN
215.5983°
Arg perigee
128.3950°
Mean anomaly
122.7678°
Rev number
579

§ Raw data

STARLINK-52431 54167U 22141L   26263.91670139  .00072730  00000+0  24032-2 0  99992 54167  53.1612 215.5983 0001313 128.3950 122.7678 15.30741619  5793

JSON: /api/v1/satellites/54167 · /tle

For live sub-satellite position, see the globe view (requires WebGL).

§ Visibility from observer

Set your observer location to see the next 7 days of passes ≥ 10°. The values pass through the URL so the page stays shareable.

No JS? Fill the form by hand. The geolocation button needs JavaScript.